Weather Roundup
Issued by NWS Chicago, IL

Home | Current Version | Previous Version | Text Only | Print | Product List | Glossary Off
Versions: 1 2 3 4 5 6 7 8 9 10 11 12 13 14 15 16 17 18 19 20 21 22 23 24 25 26 27 28 29 30 31 32 33 34 35 36 37 38 39 40 41 42 43 44 45 46 47 48 49 50

000
NZUS59 KLOT 190208
HRRLOT

CHICAGO AREA WEATHER ROUNDUP
NATIONAL WEATHER SERVICE CHICAGO/ROMEOVILLE IL
800 PM CST SAT FEB 18 2017

NOTE: "FAIR" INDICATES FEW OR NO CLOUDS BELOW 12,000 FEET WITH NO
SIGNIFICANT WEATHER AND/OR OBSTRUCTIONS TO VISIBILITY.

* THESE STATIONS ARE NOT UNDER NWS QUALITY CONTROL. THEY ALSO MAY NOT
  REPORT WEATHER SUCH AS PRECIPITATION OR FOG.

ILZ005-006-012>014-019>023-190300-
NORTHEAST ILLINOIS

CITY           SKY/WX    TMP DP  RH WIND       PRES   REMARKS
OHARE          CLEAR     52  36  54 CALM      29.79R
MIDWAY         CLEAR     52  34  50 CALM      29.79R
AURORA         CLEAR     44  36  73 NW6       29.80R
LANSING*       CLEAR     50  38  64 CALM      29.80R
JOLIET*        CLEAR     49  37  62 CALM      29.80R
WAUKEGAN       CLEAR     41  33  73 CALM      29.79R
DUPAGE AIRPORT CLEAR     47  35  63 NW3       29.79R
WHEELING       CLEAR     44  35  70 CALM      29.80R
KANKAKEE*      CLEAR     49  40  69 CALM      29.81R HAZE
MORRIS*        CLEAR     46  34  62 CALM      29.79R
LEWIS AIRPORT* CLEAR     54  39  57 NW5       29.80R
NORTHERLY ISL    N/A     47  31  54 CALM        N/A
$$

WIZ051-052-058>065-066-070>072-190300-
SOUTHEAST WISCONSIN

CITY           SKY/WX    TMP DP  RH WIND       PRES   REMARKS
MILWAUKEE      CLEAR     51  38  60 W3        29.79S
KENOSHA*       CLEAR     47  36  65 CALM      29.79R
RACINE*        CLEAR     53  38  56 W3        29.80S
WAUKESHA       CLEAR     37  34  87 SW3       29.80S
WEST BEND      CLEAR     37  34  87 CALM      29.78S
$$

INZ001>003-010>013-019-020-190300-
NORTHWEST INDIANA

CITY           SKY/WX    TMP DP  RH WIND       PRES   REMARKS
GARY*          CLEAR     41  32  70 CALM      29.80R
MICHIGAN CITY* NOT AVBL
RENSSELAER*    NOT AVBL
VALPARAISO     CLEAR     53  41  63 W3        29.79R
$$

LMZ740>746-190300-
SOUTHERN LAKE MICHIGAN

STATION/POSITION TIME  SKY/WX   TEMP WIND        PRES    VSBY
                                AIR  DIR/SP/G
                 (UTC)          (F)  (DEG/KT/KT) (MB)    (MI)
HARRISON CRIB    0140            48  130/  1/  2   N/A
BURNHAM HARBOR   0200            46     CALM       N/A
CALUMET HARBOR   0142            47  340/  2/  2 1008.4R
BURNS HARBOR     0200            44   80/  8/ 13 1009.5
MICHIGAN CITY    0140            54   30/  7/  8   N/A
$$

ABBREVIATIONS USED IN REMARKS
   TC - TEMPERATURE IN CELSIUS
  WCI - WIND CHILL INDEX
   HX - HEAT INDEX
  VSB - VISIBILITY
$$




USA.gov is the U.S. government's official web portal to all federal, state and local government web resources and services.